Location: Boss Branch
(32.3799°N, 97.2508°W)
Time: 00:28:01
(UTC+00:00)

JUGNU - Pass Details

Date: 10 December 2024
Orbit: 834 x 861 km, 20.0° (Epoch: 19 January)

Event Time Altitude Azimuth Distance (km) Brightness Sun altitude
Exits shadow 11:30:19 16° 217° (SW) 2,036 ? -22.5°
Maximum altitude 11:33:17 23° 178° (S) 1,679 ? -21.9°
Drops below altitude 10° 11:37:47 10° 127° (SE) 2,428 ? -21.0°
Sets 11:40:49 0° 113° (ESE) 3,364 ? -20.4°
